Location: Quebec
(46.8000°N, 71.2500°W)
Time: 10:47:04
(UTC-04:00)

N. Korean satellite - Pass Details

Date: 15 October 2017
Orbit: 459 x 517 km, 97.2° (Epoch: 18 October)

Event Time Altitude Azimuth Distance (km) Brightness Sun altitude
Rises 19:00:34 0° 178° (S) 2,539 10.2 -11.6°
Reaches altitude 10° 19:02:41 10° 184° (S) 1,654 9.3 -11.9°
Maximum altitude 19:06:08 49° 260° (W) 620 7.6 -12.5°
Drops below altitude 10° 19:09:34 10° 337° (NNW) 1,640 9.6 -13.1°
Sets 19:11:40 0° 343° (NNW) 2,515 10.4 -13.5°
